TimeEDT,TemperatureF,Dew PointF,Humidity,Sea Level PressureIn,VisibilityMPH,Wind Direction,Wind SpeedMPH,Gust SpeedMPH,PrecipitationIn,Events,Conditions,WindDirDegrees,DateUTC
12:53 AM,46.0,45.0,96,30.06,8.0,Calm,Calm,-,N/A,,Clear,0,2013-09-23 04:53:00
1:53 AM,46.0,44.1,93,30.07,6.0,Calm,Calm,-,N/A,,Clear,0,2013-09-23 05:53:00
2:45 AM,44.6,42.8,93,30.08,1.8,Calm,Calm,-,N/A,,Partly Cloudy,0,2013-09-23 06:45:00
2:53 AM,44.1,43.0,96,30.08,1.0,Calm,Calm,-,N/A,,Mist,0,2013-09-23 06:53:00
3:03 AM,44.6,44.6,100,30.08,0.2,Calm,Calm,-,N/A,Fog,Fog,0,2013-09-23 07:03:00
3:31 AM,44.6,42.8,93,30.08,0.5,Calm,Calm,-,N/A,Fog,Fog,0,2013-09-23 07:31:00
3:53 AM,43.0,42.1,97,30.08,0.5,Calm,Calm,-,0.01,Fog,Fog,0,2013-09-23 07:53:00
4:16 AM,42.8,41.0,93,30.08,0.2,Calm,Calm,-,N/A,Fog,Fog,0,2013-09-23 08:16:00
4:24 AM,42.8,41.0,93,30.08,0.5,Calm,Calm,-,N/A,Fog,Fog,0,2013-09-23 08:24:00
4:31 AM,42.8,41.0,93,30.08,1.0,Calm,Calm,-,N/A,,Mist,0,2013-09-23 08:31:00
4:40 AM,42.8,41.0,93,30.08,0.5,Calm,Calm,-,N/A,Fog,Fog,0,2013-09-23 08:40:00
4:53 AM,42.1,41.0,96,30.09,0.5,Calm,Calm,-,N/A,Fog,Fog,0,2013-09-23 08:53:00
5:24 AM,42.8,41.0,93,30.09,0.2,Calm,Calm,-,N/A,Fog,Fog,0,2013-09-23 09:24:00
5:32 AM,41.0,39.2,93,30.09,0.5,Calm,Calm,-,N/A,Fog,Fog,0,2013-09-23 09:32:00
5:39 AM,41.0,39.2,93,30.10,0.5,Calm,Calm,-,N/A,Fog,Fog,0,2013-09-23 09:39:00
5:51 AM,41.0,39.2,93,30.10,0.5,Calm,Calm,-,N/A,Fog,Fog,0,2013-09-23 09:51:00
5:53 AM,41.0,39.9,96,30.10,0.5,Calm,Calm,-,N/A,Fog,Fog,0,2013-09-23 09:53:00
6:01 AM,41.0,39.2,93,30.10,0.5,Calm,Calm,-,N/A,Fog,Fog,0,2013-09-23 10:01:00
6:23 AM,42.8,41.0,93,30.11,0.2,Calm,Calm,-,N/A,Fog,Fog,0,2013-09-23 10:23:00
6:53 AM,42.1,41.0,96,30.12,0.2,Calm,Calm,-,N/A,Fog,Fog,0,2013-09-23 10:53:00
7:53 AM,42.1,42.1,100,30.14,0.2,Calm,Calm,-,N/A,Fog,Fog,0,2013-09-23 11:53:00
8:02 AM,42.8,42.8,100,30.13,0.2,Calm,Calm,-,N/A,Fog,Fog,0,2013-09-23 12:02:00
8:53 AM,46.0,46.0,100,30.15,0.2,Calm,Calm,-,N/A,Fog,Fog,0,2013-09-23 12:53:00
9:36 AM,48.2,48.2,100,30.15,0.2,Calm,Calm,-,N/A,Fog,Fog,0,2013-09-23 13:36:00
9:45 AM,50.0,48.2,94,30.15,1.0,Calm,Calm,-,N/A,,Mist,0,2013-09-23 13:45:00
9:49 AM,50.0,50.0,100,30.16,3.0,Calm,Calm,-,N/A,,Overcast,0,2013-09-23 13:49:00
9:53 AM,52.0,51.1,97,30.16,4.0,Variable,3.5,-,N/A,,Overcast,0,2013-09-23 13:53:00
10:53 AM,55.9,50.0,80,30.17,10.0,ENE,5.8,-,N/A,,Mostly Cloudy,70,2013-09-23 14:53:00
11:00 AM,55.4,48.2,77,30.17,10.0,NE,4.6,-,N/A,,Overcast,50,2013-09-23 15:00:00
11:53 AM,57.0,45.0,64,30.18,10.0,NE,4.6,-,N/A,,Overcast,40,2013-09-23 15:53:00
12:53 PM,59.0,45.0,60,30.17,10.0,ENE,8.1,-,N/A,,Mostly Cloudy,60,2013-09-23 16:53:00
1:53 PM,61.0,43.0,52,30.16,10.0,East,8.1,-,N/A,,Mostly Cloudy,90,2013-09-23 17:53:00
2:53 PM,62.1,44.1,52,30.15,10.0,NNE,8.1,-,N/A,,Scattered Clouds,30,2013-09-23 18:53:00
3:53 PM,62.1,44.1,52,30.14,10.0,NE,11.5,16.1,N/A,,Scattered Clouds,50,2013-09-23 19:53:00
4:53 PM,61.0,44.1,54,30.13,10.0,NNE,8.1,-,N/A,,Scattered Clouds,30,2013-09-23 20:53:00
5:53 PM,60.1,44.1,55,30.14,10.0,ENE,8.1,-,N/A,,Partly Cloudy,60,2013-09-23 21:53:00
6:53 PM,57.0,45.0,64,30.15,10.0,NE,5.8,-,N/A,,Clear,50,2013-09-23 22:53:00
7:53 PM,53.1,45.0,74,30.14,10.0,ENE,4.6,-,N/A,,Clear,60,2013-09-23 23:53:00
8:53 PM,52.0,45.0,77,30.14,10.0,Calm,Calm,-,N/A,,Clear,0,2013-09-24 00:53:00
9:53 PM,48.0,45.0,89,30.15,8.0,Calm,Calm,-,N/A,,Clear,0,2013-09-24 01:53:00
10:53 PM,46.0,44.1,93,30.15,6.0,Calm,Calm,-,N/A,,Clear,0,2013-09-24 02:53:00
11:53 PM,44.1,42.1,93,30.14,5.0,Calm,Calm,-,N/A,,Clear,0,2013-09-24 03:53:00